KN4RPA Weather Reports


time (UTC)temp
F
wind
direction
speed
knots
gust
knots
rain 1hr
in
rain 24hr
in
rain mn
in
humidity
%
barometer
mb
20240418171545 78 90 0.0 7.8 0.00 0.00 0.00 38 1013.4
20240418170043 77 58 0.9 3.5 0.00 0.00 0.00 38 1013.7
20240418164541 77 14 0.9 7.0 0.00 0.00 0.00 39 1013.7
20240418163046 76 49 0.0 3.5 0.00 0.00 0.00 42 1013.9
20240418161540 76 48 0.0 7.8 0.00 0.00 0.00 43 1014.1
20240418160036 77 254 0.0 3.5 0.00 0.00 0.00 42 1014.0
20240418154552 76 121 0.0 9.6 0.00 0.00 0.00 41 1014.1
20240418153046 76 36 0.9 4.3 0.00 0.00 0.00 42 1014.0
20240418151538 74 67 0.9 2.6 0.00 0.00 0.00 47 1013.8
20240418150031 74 71 0.0 0.9 0.00 0.00 0.00 47 1013.9
20240418144526 73 51 0.0 5.2 0.00 0.00 0.00 47 1014.1
20240418143025 74 73 0.0 3.5 0.00 0.00 0.00 48 1013.8
20240418141521 72 38 0.0 4.3 0.00 0.00 0.00 53 1013.7
20240418140016 70 40 0.0 3.5 0.00 0.00 0.00 58 1013.6
20240418134521 68 48 0.0 2.6 0.00 0.00 0.00 65 1013.5
20240418133011 66 50 0.0 0.9 0.00 0.00 0.00 73 1013.5
20240418131511 64 38 0.0 0.9 0.00 0.00 0.00 79 1013.7
20240418130013 62 38 0.0 0.9 0.00 0.00 0.00 83 1013.5
20240418124507 61 38 0.0 0.9 0.00 0.00 0.00 87 1013.3
20240418123004 60 38 0.0 0.0 0.00 0.00 0.00 88 1013.2
20240418121503 59 38 0.0 0.0 0.00 0.00 0.00 88 1013.3
20240418120109 58 31 0.0 0.0 0.00 0.00 0.00 86 1013.2
20240418114604 58 31 0.0 0.0 0.00 0.00 0.00 86 1013.1
20240418113107 57 31 0.0 0.0 0.00 0.00 0.00 85 1013.1
20240418111554 58 31 0.0 0.0 0.00 0.00 0.00 85 1012.9
20240418110052 58 31 0.0 0.0 0.00 0.00 0.00 84 1012.7
20240418104549 58 31 0.0 0.0 0.00 0.00 0.00 84 1012.5
20240418103046 59 31 0.0 0.0 0.00 0.00 0.00 84 1012.2
20240418101557 59 31 0.0 0.0 0.00 0.00 0.00 84 1012.0
20240418100057 59 31 0.0 0.0 0.00 0.00 0.00 83 1012.0
20240418094540 60 31 0.0 0.0 0.00 0.00 0.00 83 1011.8
20240418093038 60 31 0.0 0.0 0.00 0.00 0.00 82 1011.7
20240418091536 61 31 0.0 0.0 0.00 0.00 0.00 82 1011.6
20240418090056 61 31 0.0 0.0 0.00 0.00 0.00 82 1011.6
20240418084537 62 31 0.0 0.0 0.00 0.00 0.00 81 1011.4
20240418083034 62 31 0.0 0.0 0.00 0.00 0.00 80 1011.0
20240418081536 63 31 0.0 0.0 0.00 0.00 0.00 79 1010.9
20240418080031 63 31 0.0 0.0 0.00 0.00 0.00 79 1010.9
20240418074527 64 31 0.0 0.0 0.00 0.00 0.00 78 1010.6
20240418073026 64 31 0.0 0.0 0.00 0.00 0.00 78 1010.3
20240418071526 65 31 0.0 0.0 0.00 0.00 0.00 77 1010.0
20240418070023 65 31 0.0 0.9 0.00 0.00 0.00 76 1009.9
20240418064527 66 31 0.0 0.0 0.00 0.00 0.00 75 1009.6
20240418063017 67 31 0.0 0.0 0.00 0.00 0.00 73 1009.9
20240418061516 68 31 0.0 0.0 0.00 0.00 0.00 73 1010.2
20240418060014 68 31 0.0 0.0 0.00 0.00 0.00 73 1010.7
20240418054513 68 31 0.0 0.9 0.00 0.00 0.00 73 1011.0
20240418053025 68 32 0.0 9.6 0.00 0.00 0.00 74 1011.1
20240418051512 68 26 2.6 7.0 0.00 0.00 0.00 74 1011.3
20240418050011 68 179 0.0 4.3 0.00 0.00 0.00 75 1010.1
20240418044513 68 179 0.0 7.0 0.00 0.00 0.00 74 1010.0
20240418043009 68 161 0.0 2.6 0.00 0.00 0.00 74 1009.9
20240418041508 69 161 0.0 5.2 0.00 0.00 0.00 74 1010.1
20240418040006 69 161 1.7 6.1 0.00 0.00 0.00 73 1009.9
20240418034505 69 161 0.9 7.8 0.00 0.00 0.00 72 1009.9
20240418033005 69 158 0.0 10.4 0.00 0.00 0.00 72 1009.7
20240418031506 70 165 1.7 5.2 0.00 0.00 0.00 72 1009.6
20240418030005 70 163 0.0 8.7 0.00 0.00 0.00 71 1009.7
20240418024502 70 163 2.6 8.7 0.00 0.00 0.00 71 1009.8
20240418023002 70 165 3.5 8.7 0.00 0.00 0.00 71 1009.8
20240418021641 70 163 0.9 6.1 0.00 0.00 0.00 70 1010.1
20240418020059 70 179 2.6 6.1 0.00 0.00 0.00 70 1010.2
20240418014601 70 167 1.7 6.1 0.00 0.00 0.00 70 1010.5
20240418013058 70 171 0.0 4.3 0.00 0.00 0.00 69 1010.5
20240418011603 70 180 0.9 5.2 0.00 0.00 0.00 68 1010.4
20240418010057 70 180 0.0 2.6 0.00 0.00 0.00 67 1010.3
20240418004555 71 180 0.0 0.9 0.00 0.00 0.00 65 1010.3
20240418003055 71 180 0.0 3.5 0.00 0.00 0.00 64 1010.2
20240418001554 71 180 0.0 3.5 0.00 0.00 0.00 63 1010.2
20240418000105 71 180 0.0 3.5 0.00 0.00 0.00 62 1010.0
20240417234551 72 180 0.0 3.5 0.00 0.00 0.00 61 1010.0
20240417233052 72 180 0.0 1.7 0.00 0.00 0.00 60 1009.9
20240417231550 72 180 0.0 2.6 0.00 0.00 0.00 59 1009.9
20240417230108 73 180 0.0 4.3 0.00 0.00 0.00 58 1010.0
20240417224554 73 180 0.0 5.2 0.00 0.00 0.00 58 1010.4
20240417223114 73 181 0.0 4.3 0.00 0.00 0.00 58 1010.2
20240417221545 74 170 0.9 5.2 0.00 0.00 0.00 57 1010.4
20240417220043 74 170 1.7 6.1 0.00 0.00 0.00 57 1010.8
20240417214600 74 167 0.0 5.2 0.00 0.00 0.00 56 1011.3
20240417213044 74 163 0.0 2.6 0.00 0.00 0.00 56 1011.3
20240417211541 74 163 0.0 4.3 0.00 0.00 0.00 56 1010.9
20240417210039 74 163 0.0 5.2 0.00 0.00 0.00 57 1011.3
20240417204548 74 161 0.0 0.9 0.00 0.00 0.00 56 1011.7
20240417203040 74 161 0.0 2.6 0.00 0.00 0.00 57 1011.5
20240417201536 74 161 0.0 0.9 0.00 0.00 0.00 56 1011.6
20240417200039 74 161 0.0 2.6 0.00 0.00 0.00 55 1012.1
20240417194533 74 161 0.0 0.9 0.00 0.00 0.00 55 1012.4
20240417193039 73 161 0.0 7.8 0.00 0.00 0.00 53 1012.6
20240417191525 73 163 0.9 5.2 0.00 0.00 0.00 54 1013.6
20240417190022 73 161 0.0 4.3 0.00 0.00 0.00 53 1013.8
20240417184532 72 161 0.0 4.3 0.00 0.00 0.00 53 1014.2
20240417183018 72 161 0.0 7.8 0.00 0.00 0.00 53 1014.5
20240417181515 71 115 0.0 3.5 0.00 0.00 0.00 56 1014.5
20240417180014 69 115 0.0 0.9 0.00 0.00 0.00 55 1014.5
20240417174511 69 115 0.0 0.9 0.00 0.00 0.00 55 1014.9
20240417173012 68 115 0.0 5.2 0.00 0.00 0.00 57 1015.3